Tracking 19706 objects as of 16-Jun-2019
HD Live streaming from Space Station
objects crossing your sky now

STARLINK OBJ BE

Track STARLINK OBJ BE now!
10-day predictions


NORAD ID: 44287
Int'l Code: 2019-029BE
Perigee: 556.4 km
Apogee: 560.8 km
Inclination: 53.0 °
Period: 95.7 minutes
Semi major axis: 6929 km
RCS: Unknown
Launch date: May 24, 2019
Source: United States (US)
Launch site: AIR FORCE EASTERN TEST RANGE (AFETR)
aabbcc
Your satellite tracking list
Your tracking list is empty




NASA's NSSDC Master Catalog

Two Line Element Set (TLE):
1 44287U 19029BE  19166.94987575 -.00991755 +00000-0 -74270-1 0  9992
2 44287 052.9959 069.6155 0003179 115.4641 244.6676 15.05007571002817
Source of the keplerian elements: AFSPC